Gwinner, ND

3:50 AM CST on February 25, 2017 (GMT -0600)
Gwinner-melroe

Weather History for KGWR - October, 2012

Change the Weather History Date:

Monday, October 29, 2012

  Actual Average (KP67) Record (KP67)
Temperature  
Mean Temperature 43 °F -  
Max Temperature 53 °F 43 °F 50 °F (1997)
Min Temperature 33 °F 25 °F 28 °F (1996)
Degree Days  
Heating Degree Days 22    
Moisture  
Dew Point 35 °F    
Average Humidity 77    
Maximum Humidity 100    
Minimum Humidity 47    
Precipitation  
Precipitation 0.00 in - - ()
Sea Level Pressure  
Sea Level Pressure 30.11 in    
Wind  
Wind Speed 10 mph (SE)    
Max Wind Speed 14 mph    
Max Gust Speed 16 mph    
Visibility 10 miles    
Events      
Averages and records for this station are not official NWS values.
T = Trace of Precipitation, MM = Missing Value Source: NWS Daily Summary

Daily Weather History Graph

Daily Weather History Graph

Search for Another Location

Airport or City:

Trip Planner

Search our weather history database for the weather conditions in past years. The results will help you decide how hot, cold, wet, or windy it might be!

Date:

Astronomy

Oct. 29, 2012 Rise Set
Actual Time 8:08 AM CDT 6:19 PM CDT
Civil Twilight 7:36 AM CDT 6:50 PM CDT
Nautical Twilight 7:01 AM CDT 7:26 PM CDT
Astronomical Twilight 6:26 AM CDT 8:00 PM CDT
Moon 6:09 PM CDT (10/29) 8:01 AM CDT (10/29)
Length of Visible Light 11h 14m
Length of Day
10h 11m
Full, 100% of the Moon is Illuminated
Oct 29
Full
Oct 29
Full
Nov 6
Last Quarter
Nov 13
New
Nov 20
First Quarter

Hourly Weather History & Observations

Time (CDT) Temp. Windchill Dew Point Humidity Pressure Visibility Wind Dir Wind Speed Gust Speed Precip Events Conditions
12:15 AM 33.8 °F 28.6 °F 33.8 °F 100% 30.13 in 5.0 mi East 5.8 mph - 0.00 in   Overcast
12:35 AM 35.6 °F 29.9 °F 35.6 °F 100% 30.13 in 5.0 mi East 6.9 mph - 0.00 in   Mostly Cloudy
12:55 AM 35.6 °F 29.9 °F 35.6 °F 100% 30.12 in 8.0 mi ESE 6.9 mph - 0.00 in   Mostly Cloudy
1:15 AM 35.6 °F 29.2 °F 35.6 °F 100% 30.12 in 9.0 mi ESE 8.1 mph - 0.00 in   Overcast
1:55 AM 37.4 °F 30.3 °F 35.6 °F 93% 30.12 in 10.0 mi ESE 10.4 mph - 0.00 in   Overcast
2:15 AM 37.4 °F 30.3 °F 35.6 °F 93% 30.11 in 10.0 mi ESE 10.4 mph - 0.00 in   Mostly Cloudy
2:35 AM 37.4 °F 30.3 °F 35.6 °F 93% 30.11 in 10.0 mi ESE 10.4 mph - 0.00 in   Clear
2:55 AM 37.4 °F 30.3 °F 35.6 °F 93% 30.11 in 10.0 mi ESE 10.4 mph - 0.00 in   Clear
3:15 AM 37.4 °F 29.8 °F 35.6 °F 93% 30.11 in 10.0 mi ESE 11.5 mph - 0.00 in   Partly Cloudy
3:35 AM 37.4 °F 29.8 °F 35.6 °F 93% 30.11 in 10.0 mi ESE 11.5 mph - 0.00 in   Mostly Cloudy
3:55 AM 37.4 °F 29.8 °F 35.6 °F 93% 30.10 in 10.0 mi ESE 11.5 mph - 0.00 in   Overcast
4:15 AM 35.6 °F 27.5 °F 35.6 °F 100% 30.10 in 10.0 mi ESE 11.5 mph - 0.00 in   Mostly Cloudy
4:35 AM 35.6 °F 27.5 °F 35.6 °F 100% 30.10 in 10.0 mi ESE 11.5 mph - 0.00 in   Partly Cloudy
4:55 AM 35.6 °F 27.1 °F 35.6 °F 100% 30.09 in 10.0 mi ESE 12.7 mph - 0.00 in   Partly Cloudy
5:15 AM 35.6 °F 27.1 °F 35.6 °F 100% 30.09 in 10.0 mi SE 12.7 mph - 0.00 in   Scattered Clouds
5:35 AM 35.6 °F 27.1 °F 35.6 °F 100% 30.10 in 10.0 mi SE 12.7 mph - 0.00 in   Mostly Cloudy
6:15 AM 35.6 °F 27.5 °F 35.6 °F 100% 30.10 in 10.0 mi SE 11.5 mph - 0.00 in   Mostly Cloudy
6:35 AM 37.4 °F 29.8 °F 35.6 °F 93% 30.10 in 10.0 mi SE 11.5 mph - 0.00 in   Mostly Cloudy
6:55 AM 37.4 °F 29.8 °F 35.6 °F 93% 30.10 in 10.0 mi SE 11.5 mph - 0.00 in   Mostly Cloudy
7:15 AM 37.4 °F 30.3 °F 35.6 °F 93% 30.10 in 10.0 mi ESE 10.4 mph - 0.00 in   Mostly Cloudy
7:35 AM 37.4 °F 30.3 °F 35.6 °F 93% 30.10 in 10.0 mi ESE 10.4 mph - 0.00 in   Mostly Cloudy
7:55 AM 37.4 °F 29.8 °F 35.6 °F 93% 30.10 in 10.0 mi SE 11.5 mph - 0.00 in   Mostly Cloudy
8:35 AM 37.4 °F 30.3 °F 35.6 °F 93% 30.11 in 10.0 mi SE 10.4 mph - 0.00 in   Overcast
8:55 AM 37.4 °F 29.3 °F 35.6 °F 93% 30.11 in 10.0 mi SE 12.7 mph - 0.00 in   Overcast
9:15 AM 37.4 °F 29.8 °F 35.6 °F 93% 30.11 in 9.0 mi SE 11.5 mph - 0.00 in   Scattered Clouds
9:35 AM 37.4 °F 29.8 °F 35.6 °F 93% 30.12 in 10.0 mi SE 11.5 mph - 0.00 in   Clear
9:55 AM 39.2 °F 31.2 °F 35.6 °F 87% 30.13 in 10.0 mi SE 13.8 mph - 0.00 in   Clear
10:15 AM 39.2 °F 31.6 °F 35.6 °F 87% 30.12 in 10.0 mi SE 12.7 mph - 0.00 in   Clear
10:35 AM 41.0 °F 33.9 °F 35.6 °F 81% 30.13 in 10.0 mi ESE 12.7 mph - 0.00 in   Clear
11:15 AM 44.6 °F 38.8 °F 35.6 °F 71% 30.13 in 10.0 mi SE 11.5 mph - 0.00 in   Clear
11:35 AM 44.6 °F 39.2 °F 35.6 °F 71% 30.13 in 10.0 mi ESE 10.4 mph - 0.00 in   Clear
11:55 AM 46.4 °F 40.7 °F 35.6 °F 66% 30.12 in 10.0 mi SE 12.7 mph - 0.00 in   Clear
12:15 PM 48.2 °F - 35.6 °F 62% 30.12 in 9.0 mi SE 10.4 mph - 0.00 in   Clear
12:35 PM 48.2 °F - 35.6 °F 62% 30.12 in 9.0 mi SE 9.2 mph - 0.00 in   Clear
12:55 PM 50.0 °F - 35.6 °F 58% 30.12 in 10.0 mi SE 9.2 mph - 0.00 in   Clear
1:15 PM 51.8 °F - 35.6 °F 54% 30.11 in 10.0 mi SE 9.2 mph - 0.00 in   Clear
1:35 PM 51.8 °F - 33.8 °F 50% 30.11 in 10.0 mi SSE 8.1 mph - 0.00 in   Clear
1:55 PM 53.6 °F - 33.8 °F 47% 30.11 in 10.0 mi SE 9.2 mph - 0.00 in   Clear
2:15 PM 53.6 °F - 33.8 °F 47% 30.10 in 10.0 mi South 11.5 mph - 0.00 in   Clear
2:35 PM 53.6 °F - 33.8 °F 47% 30.09 in 10.0 mi SSE 8.1 mph - 0.00 in   Clear
2:55 PM 53.6 °F - 33.8 °F 47% 30.09 in 10.0 mi SSE 11.5 mph - 0.00 in   Clear
3:15 PM 53.6 °F - 33.8 °F 47% 30.10 in 10.0 mi SSE 11.5 mph 16.1 mph 0.00 in   Clear
3:35 PM 53.6 °F - 33.8 °F 47% 30.09 in 9.0 mi ESE 12.7 mph - 0.00 in   Clear
3:55 PM 53.6 °F - 33.8 °F 47% 30.09 in 10.0 mi ESE 11.5 mph - 0.00 in   Clear
4:15 PM 53.6 °F - 33.8 °F 47% 30.09 in 10.0 mi SE 12.7 mph - 0.00 in   Clear
4:35 PM 53.6 °F - 33.8 °F 47% 30.10 in 10.0 mi ESE 12.7 mph - 0.00 in   Clear
4:55 PM 53.6 °F - 33.8 °F 47% 30.10 in 10.0 mi SE 10.4 mph - 0.00 in   Clear
5:15 PM 51.8 °F - 33.8 °F 50% 30.09 in 10.0 mi ESE 10.4 mph - 0.00 in   Clear
5:35 PM 51.8 °F - 33.8 °F 50% 30.09 in 10.0 mi ESE 9.2 mph - 0.00 in   Clear
5:55 PM 48.2 °F - 33.8 °F 58% 30.09 in 10.0 mi ESE 8.1 mph - 0.00 in   Clear
6:15 PM 44.6 °F 40.2 °F 33.8 °F 66% 30.10 in 10.0 mi ESE 8.1 mph - 0.00 in   Clear
6:35 PM 42.8 °F 38.0 °F 33.8 °F 70% 30.10 in 5.0 mi ESE 8.1 mph - 0.00 in   Clear
6:55 PM 41.0 °F 35.8 °F 33.8 °F 76% 30.10 in 10.0 mi ESE 8.1 mph - 0.00 in   Clear
7:15 PM 39.2 °F 33.6 °F 33.8 °F 81% 30.11 in 8.0 mi ESE 8.1 mph - 0.00 in   Clear
7:35 PM 39.2 °F 33.0 °F 33.8 °F 81% 30.11 in 10.0 mi ESE 9.2 mph - 0.00 in   Clear
10:55 PM 39.2 °F 31.2 °F 33.8 °F 81% 30.11 in 10.0 mi SE 13.8 mph - 0.00 in   Clear
11:15 PM 39.2 °F 31.6 °F 33.8 °F 81% 30.12 in 10.0 mi SE 12.7 mph - 0.00 in   Clear
11:35 PM 39.2 °F 32.0 °F 33.8 °F 81% 30.13 in 10.0 mi SE 11.5 mph - 0.00 in   Partly Cloudy
11:55 PM 39.2 °F 31.2 °F 33.8 °F 81% 30.12 in 10.0 mi SE 13.8 mph - 0.00 in   Scattered Clouds